TimeCDT,TemperatureF,Dew PointF,Humidity,Sea Level PressureIn,VisibilityMPH,Wind Direction,Wind SpeedMPH,Gust SpeedMPH,PrecipitationIn,Events,Conditions,WindDirDegrees,DateUTC
12:20 AM,75.2,73.4,94,30.11,10.0,East,4.6,-,N/A,,Overcast,90,2013-08-04 05:20:00
12:48 AM,75.2,73.4,94,30.08,9.0,East,8.1,-,N/A,,Overcast,100,2013-08-04 05:48:00
12:53 AM,73.9,73.0,97,30.04,9.0,ESE,8.1,-,N/A,,Mostly Cloudy,110,2013-08-04 05:53:00
1:09 AM,75.2,73.4,94,30.06,9.0,ESE,6.9,-,N/A,,Overcast,110,2013-08-04 06:09:00
1:42 AM,75.2,73.4,94,30.07,10.0,ESE,8.1,-,N/A,,Overcast,110,2013-08-04 06:42:00
1:53 AM,75.0,73.0,94,30.05,10.0,ESE,6.9,-,N/A,,Overcast,110,2013-08-04 06:53:00
2:34 AM,75.2,73.4,94,30.09,10.0,East,6.9,-,N/A,,Overcast,100,2013-08-04 07:34:00
2:53 AM,75.0,73.0,94,30.06,9.0,East,4.6,-,N/A,,Overcast,100,2013-08-04 07:53:00
3:53 AM,73.9,73.0,97,30.06,8.0,East,6.9,-,0.00,Rain,Light Rain,100,2013-08-04 08:53:00
4:17 AM,73.4,73.4,100,30.10,6.0,East,5.8,-,0.03,Rain,Light Rain,80,2013-08-04 09:17:00
4:45 AM,73.4,71.6,94,30.08,6.0,ESE,8.1,-,0.06,Rain,Light Rain,120,2013-08-04 09:45:00
4:53 AM,73.0,72.0,96,30.05,6.0,ESE,6.9,-,0.07,Rain,Light Rain,120,2013-08-04 09:53:00
5:10 AM,73.4,73.4,100,30.08,4.0,East,4.6,-,0.02,Rain-Thunderstorm,Light Rain,100,2013-08-04 10:10:00
5:25 AM,73.4,73.4,100,30.08,5.0,Calm,Calm,-,0.03,Rain,Light Rain,0,2013-08-04 10:25:00
5:53 AM,73.9,73.0,97,30.07,5.0,Calm,Calm,-,0.06,Rain,Light Rain,0,2013-08-04 10:53:00
6:42 AM,73.4,73.4,100,30.12,2.5,Calm,Calm,-,0.08,Rain,Rain,0,2013-08-04 11:42:00
6:49 AM,73.4,73.4,100,30.12,2.5,Calm,Calm,-,0.09,Rain,Rain,0,2013-08-04 11:49:00
6:51 AM,73.4,73.4,100,30.12,2.5,Calm,Calm,-,0.10,Rain,Rain,0,2013-08-04 11:51:00
6:53 AM,73.9,73.9,100,30.09,2.5,Calm,Calm,-,0.11,Rain,Rain,0,2013-08-04 11:53:00
7:14 AM,73.4,73.4,100,30.11,4.0,Calm,Calm,-,0.03,Rain,Light Rain,0,2013-08-04 12:14:00
7:44 AM,73.4,73.4,100,30.12,3.0,ENE,3.5,-,0.07,Rain,Rain,60,2013-08-04 12:44:00
7:53 AM,73.0,73.0,100,30.09,2.0,Calm,Calm,-,0.09,Rain,Rain,0,2013-08-04 12:53:00
7:57 AM,73.4,73.4,100,30.12,2.0,Calm,Calm,-,0.01,Rain,Rain,0,2013-08-04 12:57:00
8:21 AM,73.4,73.4,100,30.12,3.0,ESE,3.5,-,0.05,Rain,Light Rain,120,2013-08-04 13:21:00
8:24 AM,73.4,73.4,100,30.11,2.5,ESE,4.6,-,0.06,Rain,Light Rain,110,2013-08-04 13:24:00
8:30 AM,73.4,73.4,100,30.11,3.0,East,4.6,-,0.07,Rain,Light Rain,90,2013-08-04 13:30:00
8:53 AM,73.0,-9999,N/A,30.09,3.0,East,4.6,-,0.10,Rain,Rain,90,2013-08-04 13:53:00
9:21 AM,73.4,-9999,N/A,30.12,2.5,ESE,3.5,-,0.03,Rain,Light Rain,110,2013-08-04 14:21:00
9:26 AM,73.4,-9999,N/A,30.12,3.0,ESE,4.6,-,0.04,Rain,Light Rain,110,2013-08-04 14:26:00
9:38 AM,73.4,-9999,N/A,30.13,4.0,SE,4.6,-,0.04,Rain,Light Rain,130,2013-08-04 14:38:00
9:48 AM,73.4,-9999,N/A,30.13,5.0,SSE,3.5,-,0.05,Rain,Light Rain,150,2013-08-04 14:48:00
9:53 AM,73.9,-9999,N/A,30.11,6.0,SSE,3.5,-,0.05,Rain,Light Rain,160,2013-08-04 14:53:00
10:23 AM,73.4,-9999,N/A,30.12,2.5,ESE,3.5,-,0.03,Rain,Light Rain,110,2013-08-04 15:23:00
10:27 AM,73.4,-9999,N/A,30.12,3.0,ESE,4.6,-,0.04,Rain,Light Rain,110,2013-08-04 15:27:00
10:35 AM,73.4,-9999,N/A,30.11,4.0,East,8.1,-,0.04,Rain,Light Rain,100,2013-08-04 15:35:00
10:53 AM,73.9,-9999,N/A,30.08,9.0,East,9.2,-,0.04,,Overcast,100,2013-08-04 15:53:00
11:07 AM,73.4,-9999,N/A,30.10,9.0,ESE,8.1,-,N/A,,Overcast,110,2013-08-04 16:07:00
11:18 AM,73.4,-9999,N/A,30.10,9.0,East,8.1,-,N/A,,Overcast,100,2013-08-04 16:18:00
11:35 AM,75.2,-9999,N/A,30.10,10.0,East,9.2,-,N/A,,Overcast,100,2013-08-04 16:35:00
11:45 AM,75.2,-9999,N/A,30.10,9.0,East,9.2,-,N/A,,Overcast,90,2013-08-04 16:45:00
11:53 AM,75.0,75.0,100,30.07,10.0,East,11.5,-,N/A,,Overcast,100,2013-08-04 16:53:00
12:35 PM,75.2,73.4,94,30.09,10.0,East,6.9,-,0.00,,Overcast,100,2013-08-04 17:35:00
12:53 PM,75.0,72.0,90,30.07,10.0,ESE,5.8,-,0.00,,Overcast,110,2013-08-04 17:53:00
1:05 PM,73.4,71.6,94,30.09,9.0,ESE,5.8,-,0.00,Rain,Light Rain,120,2013-08-04 18:05:00
1:35 PM,73.4,71.6,94,30.08,10.0,SE,9.2,-,0.00,,Overcast,130,2013-08-04 18:35:00
1:53 PM,73.0,71.1,93,30.06,6.0,SE,9.2,-,0.00,Rain,Light Rain,130,2013-08-04 18:53:00
2:53 PM,73.9,72.0,93,30.05,9.0,SE,9.2,-,0.00,,Overcast,130,2013-08-04 19:53:00
3:02 PM,73.4,71.6,94,30.07,3.0,SSE,8.1,-,0.01,Rain,Light Rain,150,2013-08-04 20:02:00
3:04 PM,73.4,71.6,94,30.07,2.5,SE,8.1,-,0.01,Rain,Rain,140,2013-08-04 20:04:00
3:20 PM,73.4,73.4,100,30.06,5.0,SE,8.1,-,0.02,Rain,Light Rain,130,2013-08-04 20:20:00
3:30 PM,73.4,73.4,100,30.06,10.0,SE,6.9,-,0.02,,Overcast,130,2013-08-04 20:30:00
3:34 PM,73.4,71.6,94,30.06,10.0,SE,9.2,-,0.02,,Overcast,130,2013-08-04 20:34:00
3:46 PM,75.2,71.6,89,30.06,10.0,SE,9.2,-,0.02,,Overcast,140,2013-08-04 20:46:00
3:53 PM,73.9,72.0,93,30.04,10.0,SE,9.2,-,0.02,,Overcast,140,2013-08-04 20:53:00
4:02 PM,73.4,71.6,94,30.06,9.0,SSE,11.5,-,N/A,,Overcast,150,2013-08-04 21:02:00
4:53 PM,75.0,72.0,90,30.03,10.0,SE,6.9,-,N/A,,Overcast,140,2013-08-04 21:53:00
5:01 PM,75.2,73.4,94,30.05,10.0,ESE,8.1,-,N/A,,Overcast,110,2013-08-04 22:01:00
5:19 PM,75.2,71.6,89,30.05,10.0,ESE,5.8,-,N/A,,Overcast,120,2013-08-04 22:19:00
5:31 PM,75.2,73.4,94,30.05,10.0,ESE,8.1,-,N/A,,Overcast,110,2013-08-04 22:31:00
5:45 PM,75.2,71.6,89,30.04,10.0,ESE,8.1,-,N/A,,Overcast,120,2013-08-04 22:45:00
5:53 PM,75.9,72.0,87,30.01,10.0,SE,9.2,-,N/A,,Mostly Cloudy,130,2013-08-04 22:53:00
6:53 PM,75.9,72.0,87,29.99,10.0,ESE,8.1,-,N/A,,Mostly Cloudy,120,2013-08-04 23:53:00
7:21 PM,75.2,71.6,89,30.02,10.0,SE,9.2,-,N/A,,Overcast,130,2013-08-05 00:21:00
7:31 PM,75.2,71.6,89,30.02,10.0,SE,6.9,-,N/A,,Mostly Cloudy,140,2013-08-05 00:31:00
7:48 PM,75.2,71.6,89,30.02,10.0,SE,5.8,-,N/A,,Mostly Cloudy,140,2013-08-05 00:48:00
7:53 PM,75.0,72.0,90,30.00,10.0,SE,6.9,-,N/A,,Mostly Cloudy,140,2013-08-05 00:53:00
8:06 PM,75.2,71.6,89,30.03,10.0,SE,9.2,-,N/A,,Partly Cloudy,140,2013-08-05 01:06:00
8:53 PM,73.0,71.1,93,30.01,10.0,SSE,5.8,-,N/A,,Clear,150,2013-08-05 01:53:00
9:41 PM,71.6,71.6,100,30.05,8.0,East,4.6,-,N/A,,Scattered Clouds,90,2013-08-05 02:41:00
9:53 PM,72.0,71.1,97,30.03,7.0,East,3.5,-,N/A,,Partly Cloudy,100,2013-08-05 02:53:00
10:53 PM,71.1,70.0,96,30.01,5.0,East,3.5,-,N/A,,Clear,100,2013-08-05 03:53:00
11:39 PM,71.6,69.8,94,30.03,4.0,ESE,4.6,-,N/A,,Partly Cloudy,120,2013-08-05 04:39:00
11:53 PM,71.1,70.0,96,30.01,4.0,East,4.6,-,N/A,,Clear,100,2013-08-05 04:53:00